Weather History for KNHK - October, 2012

Change the Weather History Date:

Thursday, October 4, 2012

  Actual Average Record
Temperature  
Mean Temperature 72 °F -  
Max Temperature 80 °F 70 °F 90 °F (1986)
Min Temperature 63 °F 55 °F 40 °F (1987)
Cooling Degree Days 6    
Growing Degree Days 22 (Base 50)    
Moisture  
Dew Point 67 °F    
Average Humidity 79    
Maximum Humidity 94    
Minimum Humidity 58    
Precipitation  
Precipitation 0.01 in - - ()
Sea Level Pressure  
Sea Level Pressure 30.11 in    
Wind  
Wind Speed 6 mph (SW)    
Max Wind Speed 9 mph    
Max Gust Speed -    
Visibility 10 miles    
Events Rain    
Averages and records for this station are not official NWS values.
T = Trace of Precipitation, MM = Missing Value Source: NWS Daily Summary

Daily Weather History Graph

Daily Weather History Graph

Search for Another Location

Airport or City:

Trip Planner

Search our weather history database for the weather conditions in past years. The results will help you decide how hot, cold, wet, or windy it might be!

Date:

Astronomy

Oct. 04, 2012 Rise Set
Actual Time 7:04 AM EDT 6:43 PM EDT
Civil Twilight 6:38 AM EDT 7:09 PM EDT
Nautical Twilight 6:07 AM EDT 7:40 PM EDT
Astronomical Twilight 5:36 AM EDT 8:10 PM EDT
Moon 9:21 PM EDT 11:15 AM EDT
Length of Visible Light 12h 31m
Length of Day
11h 38m
Waning Gibbous, 82% of the Moon is Illuminated
Oct 4
Waning Gibbous
Oct 8
Last Quarter
Oct 15
New
Oct 21
First Quarter
Oct 29
Full

Hourly Weather History & Observations

Time (EDT) Temp. Dew Point Humidity Pressure Visibility Wind Dir Wind Speed Gust Speed Precip Events Conditions
12:52 AM 77.0 °F 72.0 °F 84% 30.12 in 10.0 mi SSW 5.8 mph - N/A   Clear
1:52 AM 75.9 °F 72.0 °F 87% 30.12 in 10.0 mi SSW 4.6 mph - N/A   Clear
2:52 AM 75.9 °F 72.0 °F 87% 30.11 in 10.0 mi SSW 5.8 mph - N/A   Clear
3:52 AM 75.0 °F 73.0 °F 94% 30.10 in 10.0 mi SSW 6.9 mph - N/A   Clear
4:52 AM 75.0 °F 73.0 °F 94% 30.11 in 10.0 mi SW 5.8 mph - N/A   Mostly Cloudy
5:14 AM 75.2 °F 73.4 °F 94% 30.11 in 10.0 mi WSW 5.8 mph - N/A   Mostly Cloudy
5:52 AM 75.0 °F 72.0 °F 90% 30.12 in 10.0 mi SSW 6.9 mph - N/A   Mostly Cloudy
6:52 AM 75.0 °F 71.1 °F 87% 30.12 in 10.0 mi SSW 4.6 mph - N/A   Mostly Cloudy
7:29 AM 73.4 °F 71.6 °F 94% 30.13 in 10.0 mi SSW 5.8 mph - 0.00 in Rain Light Rain
7:52 AM 73.9 °F 70.0 °F 87% 30.14 in 9.0 mi WSW 3.5 mph - 0.00 in Rain Light Rain
8:52 AM 73.0 °F 66.9 °F 81% 30.14 in 10.0 mi WSW 5.8 mph - 0.01 in Rain Light Rain
9:52 AM 75.0 °F 62.1 °F 64% 30.14 in 10.0 mi South 4.6 mph - 0.00 in   Mostly Cloudy
10:52 AM 75.0 °F 63.0 °F 66% 30.15 in 10.0 mi SSW 5.8 mph - N/A   Mostly Cloudy
11:52 AM 77.0 °F 64.0 °F 64% 30.12 in 10.0 mi South 4.6 mph - N/A   Mostly Cloudy
12:52 PM 77.0 °F 61.0 °F 58% 30.12 in 10.0 mi SW 6.9 mph - N/A   Mostly Cloudy
1:52 PM 77.0 °F 62.1 °F 60% 30.12 in 10.0 mi WSW 9.2 mph - N/A   Mostly Cloudy
2:52 PM 77.0 °F 64.0 °F 64% 30.09 in 10.0 mi SW 8.1 mph - N/A   Mostly Cloudy
3:52 PM 79.0 °F 63.0 °F 58% 30.08 in 10.0 mi WSW 6.9 mph - N/A   Mostly Cloudy
4:52 PM 77.0 °F 64.0 °F 64% 30.09 in 10.0 mi SW 8.1 mph - N/A   Mostly Cloudy
5:52 PM 75.9 °F 64.9 °F 69% 30.09 in 10.0 mi WSW 6.9 mph - N/A   Mostly Cloudy
6:52 PM 73.9 °F 64.9 °F 73% 30.09 in 10.0 mi West 5.8 mph - N/A   Mostly Cloudy
7:52 PM 70.0 °F 63.0 °F 78% 30.10 in 10.0 mi West 5.8 mph - N/A   Scattered Clouds
8:52 PM 68.0 °F 63.0 °F 84% 30.11 in 10.0 mi WSW 5.8 mph - N/A   Scattered Clouds
9:52 PM 64.9 °F 62.1 °F 90% 30.12 in 10.0 mi SW 4.6 mph - N/A   Partly Cloudy
10:52 PM 64.0 °F 61.0 °F 90% 30.12 in 10.0 mi WSW 3.5 mph - N/A   Clear
11:52 PM 63.0 °F 61.0 °F 93% 30.12 in 10.0 mi SW 4.6 mph - N/A   Clear